This is the latest recevied weather packets stored in our database for station/object KD0OXW. If no packets are shown the sender has not sent any weather packets the latest 1 day(s).
| Time | Temp. | Humidity | Pressure | Rain* | Wind** | Luminosity | Snow |
|---|---|---|---|---|---|---|---|
| 1778247479 | 8.89° C | 54% | 1008.9 hPa | 0 mm | - | - | - |
| 1778245679 | 5.56° C | 75% | 1009.2 hPa | 0 mm | - | - | - |
| 1778244479 | 3.33° C | 87% | 1009.3 hPa | 0 mm | - | - | - |
| 1778242079 | 0° C | 92% | 1009.4 hPa | 0 mm | - | - | - |
| 1778235780 | -3.89° C | 91% | 1009.2 hPa | 0 mm | - | - | - |
| 1778235480 | -3.89° C | 91% | 1009.1 hPa | 0 mm | - | - | - |
| 1778234880 | -3.89° C | 91% | 1009.1 hPa | 0 mm | - | - | - |
| 1778234580 | -3.89° C | 91% | 1009.2 hPa | 0 mm | - | - | - |
| 1778234280 | -3.89° C | 91% | 1009.2 hPa | 0 mm | - | - | - |
| 1778233980 | -3.89° C | 91% | 1009.2 hPa | 0 mm | - | - | - |
| 1778233680 | -3.89° C | 91% | 1009.2 hPa | 0 mm | - | - | - |
| 1778233380 | -3.89° C | 91% | 1009.2 hPa | 0 mm | - | - | - |
| 1778233080 | -3.89° C | 91% | 1009.2 hPa | 0 mm | - | - | - |
| 1778232780 | -3.89° C | 91% | 1009.2 hPa | 0 mm | - | - | - |
| 1778232480 | -3.89° C | 91% | 1009.3 hPa | 0 mm | - | - | - |
| 1778232180 | -3.33° C | 91% | 1009.3 hPa | 0 mm | - | - | - |
| 1778231880 | -3.89° C | 91% | 1009.3 hPa | 0 mm | - | - | - |
| 1778231580 | -3.89° C | 91% | 1009.3 hPa | 0 mm | - | - | - |
| 1778231280 | -3.89° C | 91% | 1009.3 hPa | 0 mm | - | - | - |
| 1778230980 | -3.89° C | 91% | 1009.3 hPa | 0 mm | - | - | - |
| 1778230680 | -3.89° C | 90% | 1009.3 hPa | 0 mm | - | - | - |
| 1778230380 | -3.89° C | 90% | 1009.3 hPa | 0 mm | - | - | - |
| 1778230080 | -3.89° C | 90% | 1009.3 hPa | 0 mm | - | - | - |
| 1778229780 | -3.89° C | 90% | 1009.4 hPa | 0 mm | - | - | - |
| 1778229480 | -3.89° C | 90% | 1009.4 hPa | 0 mm | - | - | - |
* Rain latest hour (hover to see other rain measurements)
** Current wind speed in m/s (hover to see current wind gust speed)